[[{"header":{"parameterUnit":"m.s-1","parameterCategory":2,"la1":30.2991,"la2":30.254,"lo1":-89.0895,"lo2":-89.0444,"dy":0.0017,"dx":0.0017,"nx":28,"ny":28,"refTime":"2025-07-27T03:00:00:Z","depth":"0","parameterNumber":2,"parameterNumberName":"U-component_of_CURRENTS"},"data":[0,0,0,0,0,0,0,0,0,0,0,0,0,0,0,0,0,0,0,0,0,0,0,0,0,0,0,0,0,0,0,0,0,0,0,0,0,0,0,0,0,0,0,0,0,0,0,0,0,0,0,0,0,0,0,0,0,0,0.4234,0.4236,0,0.4319,0.432,0.432,0.4328,0.4327,0.4327,0.4326,0.4324,0.4324,0.4324,0,0,0,0,0,0,0,0,0,0,0,0,0,0.4086,0.4089,0.4234,0.4236,0.4237,0.4319,0.432,0.432,0.4328,0.4327,0.4327,0.4326,0.4324,0.4324,0.4324,0,0,0,0,0,0,0,0,0,0,0,0,0,0.4154,0.4089,0.4234,0.4254,0.4257,0.4319,0.432,0.432,0.4328,0.4327,0.4326,0.4326,0.4323,0.4324,0.4324,0.4341,0,0,0.4326,0.4326,0,0,0,0,0,0,0,0,0.415,0.4159,0.425,0.4253,0.4257,0.4316,0.4267,0.4325,0.4328,0.4296,0.4326,0.4325,0.4317,0.4318,0.433,0.4341,0.4341,0.4326,0.4326,0.4327,0.4327,0,0,0,0,0,0,0,0.4145,0.4155,0.4263,0.4252,0.4256,0.4262,0.427,0.4278,0.4304,0.4299,0.4301,0.4318,0.4317,0.4329,0.4329,0.4341,0.4326,0.4327,0.4327,0.4327,0.4392,0.4394,0,0,0,0,0,0,0.4146,0.4151,0.426,0.4266,0.4206,0.4266,0.4275,0.4294,0.4306,0.4309,0.4319,0.4318,0.4329,0.4329,0.4329,0.4366,0.4327,0.4327,0.4327,0.4391,0.4393,0.4394,0,0,0,0,0,0,0.4142,0.4155,0.4257,0.4214,0.4228,0.4269,0.4291,0.4296,0.4307,0.4323,0.4323,0.4324,0.4328,0.4328,0.4344,0.4365,0.4327,0.4328,0.4389,0.4392,0.4393,0.4428,0,0,0,0,0,0,0.4138,0.4153,0.4165,0.4214,0.4231,0.428,0.4292,0.4298,0.4321,0.4321,0.4328,0.4327,0.4327,0.4343,0.4344,0.4365,0.4328,0.4388,0.439,0.4393,0.4425,0.4431,0.4436,0,0,0,0,0,0.4132,0.4138,0.4165,0.4178,0.4246,0.428,0.4288,0.4312,0.4322,0.432,0.434,0.4327,0.4361,0.4345,0.4346,0.4367,0.4386,0.439,0.4393,0.4423,0.443,0.4436,0,0,0,0,0,0,0.4069,0.4142,0.4171,0.4198,0.4237,0.4283,0.4288,0.4314,0.433,0.4333,0.4341,0.4342,0.4375,0.4363,0.4345,0.4396,0.4373,0.4377,0.4396,0.4403,0.4408,0.4418,0.4329,0,0,0,0,0,0.4069,0.4096,0.4161,0.418,0.42,0.4248,0.4267,0.4291,0.4318,0.4325,0.4339,0.4358,0.4391,0.4388,0.4413,0.4424,0.4447,0.4441,0.4447,0.4451,0.4462,0.4524,0.4536,0.4405,0.4405,0.4405,0,0,0.4043,0.4094,0.4103,0.417,0.42,0.4236,0.4254,0.4284,0.4317,0.4322,0.4355,0.4383,0.4404,0.4436,0.4447,0.4422,0.4501,0.4455,0.4459,0.4468,0.4528,0.4541,0.4553,0.4407,0.4406,0.4406,0,0,0.4016,0.4057,0.4077,0.4118,0.4183,0.4217,0.4227,0.4283,0.4306,0.4346,0.4379,0.442,0.4437,0.4475,0.4492,0.454,0.4543,0.454,0.4557,0.4616,0.4628,0.4638,0.4683,0.4697,0.4524,0.4524,0.4524,0,0.3978,0.4033,0.4082,0.4124,0.4156,0.4209,0.4238,0.4277,0.4333,0.4362,0.4352,0.4447,0.4463,0.4532,0.4555,0.4554,0.4581,0.4527,0.4624,0.4634,0.4644,0.4688,0.4703,0.4526,0.4526,0.4526,0.4526,0,0.3989,0.4031,0.404,0.4119,0.4154,0.418,0.4253,0.4291,0.4326,0.4373,0.4446,0.4485,0.4532,0.4556,0.4568,0.4653,0.4649,0.4639,0.4605,0.466,0.4702,0.4717,0.4529,0.4528,0.4528,0.4527,0,0,0.389,0.402,0.402,0.4061,0.4156,0.4179,0.4247,0.4318,0.4358,0.4421,0.4477,0.4558,0.4583,0.4607,0.4637,0.4693,0.4792,0.4691,0.4694,0.4733,0.492,0.4829,0.4837,0.4796,0.4799,0.4801,0.4921,0,0.3874,0.3948,0.402,0.4069,0.4108,0.4188,0.4238,0.4317,0.4374,0.4439,0.4519,0.4578,0.4599,0.4623,0.4689,0.4787,0.4833,0.476,0.4864,0.4867,0.4778,0.4852,0.4699,0.4785,0.4935,0.4938,0.494,0,0.3854,0.3918,0.397,0.4064,0.4083,0.4115,0.4202,0.4259,0.4378,0.4427,0.4513,0.4574,0.4698,0.4683,0.4865,0.4818,0.4868,0.4927,0.4932,0.4847,0.4805,0.4756,0.4806,0.4658,0.4963,0.4961,0.4959,0,0.3768,0.3866,0.3904,0.394,0.406,0.4086,0.4136,0.4246,0.4301,0.4422,0.4472,0.4611,0.4686,0.4796,0.493,0.4902,0.5117,0.5082,0.5044,0.5037,0.4927,0.4905,0.4842,0.5181,0.5181,0.5181,0.5181,0,0.3726,0.3746,0.3862,0.3887,0.392,0.4017,0.406,0.4136,0.425,0.4317,0.4447,0.4531,0.4719,0.4861,0.4955,0.5064,0.5134,0.507,0.5071,0.4932,0.4911,0.479,0.4722,0.5185,0.5184,0.5183,0.5183,0,0.3624,0.3704,0.3749,0.3859,0.3886,0.3902,0.4009,0.4047,0.4162,0.4258,0.4301,0.4509,0.47,0.4873,0.5075,0.5081,0.5057,0.5201,0.5021,0.4997,0.4767,0.4706,0.4542,0.4419,0.5167,0.5165,0.5164,0,0.3579,0.36,0.3701,0.3723,0.3766,0.3817,0.3857,0.3984,0.4037,0.4241,0.4281,0.4499,0.4631,0.4901,0.5006,0.5146,0.5015,0.5023,0.4925,0.4746,0.4682,0.4522,0.442,0.4805,0.4801,0.4798,0.4795,0,0.3496,0.3528,0.3574,0.3625,0.366,0.3707,0.3772,0.3805,0.3961,0.4056,0.4198,0.4322,0.4587,0.4682,0.4861,0.4927,0.4766,0.4953,0.4827,0.4443,0.4208,0.4092,0.4731,0.4766,0.4769,0.4771,0.4772,0.4774,0.3413,0.342,0.3482,0.3515,0.3556,0.3577,0.3577,0.3669,0.3743,0.3867,0.4046,0.4165,0.4358,0.46,0.4635,0.4553,0.4552,0.4435,0.4399,0.427,0.4064,0.4623,0.461,0.4611,0.4613,0.4615,0.4616,0,0.3312,0.3341,0.3372,0.3408,0.3404,0.3465,0.3508,0.3497,0.3541,0.3698,0.3813,0.3916,0.4019,0.415,0.4169,0.4022,0.3889,0.3924,0.3677,0.3622,0.4187,0.4081,0.3876,0.3877,0.3877,0.3877,0.3877,0.3877,0.3265,0.3259,0.3287,0.3255,0.327,0.323,0.3228,0.3233,0.3303,0.3337,0.3373,0.3471,0.3656,0.3785,0.3676,0.3603,0.333,0.3211,0.3192,0.3602,0.3646,0.3688,0.3572,0.3264,0.3263,0.2514,0.2508,0.2503]},{"header":{"parameterUnit":"m.s-1","parameterCategory":2,"la1":30.2991,"la2":30.254,"lo1":-89.0895,"lo2":-89.0444,"dy":0.0017,"dx":0.0017,"nx":28,"ny":28,"refTime":"2025-07-27T03:00:00:Z","depth":"0","parameterNumber":3,"parameterNumberName":"V-component_of_CURRENTS"},"data":[0,0,0,0,0,0,0,0,0,0,0,0,0,0,0,0,0,0,0,0,0,0,0,0,0,0,0,0,0,0,0,0,0,0,0,0,0,0,0,0,0,0,0,0,0,0,0,0,0,0,0,0,0,0,0,0,0,0,0.0725,0.0724,0,0.0643,0.0642,0.0641,0.0565,0.0565,0.0564,0.0563,0.046,0.0458,0.0456,0,0,0,0,0,0,0,0,0,0,0,0,0,0.0744,0.0744,0.0725,0.0724,0.0723,0.0643,0.0642,0.0641,0.0566,0.0565,0.0564,0.0563,0.046,0.0458,0.0456,0,0,0,0,0,0,0,0,0,0,0,0,0,0.0705,0.0744,0.0725,0.0677,0.0672,0.0643,0.0642,0.064,0.0566,0.0565,0.0563,0.0562,0.0461,0.0458,0.0455,0.0461,0,0,0.0446,0.0445,0,0,0,0,0,0,0,0,0.0708,0.0705,0.0685,0.068,0.0674,0.0614,0.0611,0.058,0.0566,0.0605,0.0563,0.0562,0.0511,0.0504,0.049,0.0456,0.0452,0.0446,0.0444,0.0443,0.0442,0,0,0,0,0,0,0,0.0711,0.0707,0.0691,0.0684,0.0678,0.0635,0.0628,0.0604,0.0564,0.0601,0.0596,0.0589,0.0508,0.0493,0.0487,0.045,0.0446,0.0443,0.0441,0.044,0.0411,0.0412,0,0,0,0,0,0,0.0728,0.071,0.0694,0.0689,0.069,0.0636,0.0629,0.0634,0.0565,0.0554,0.059,0.0586,0.0499,0.049,0.0483,0.0508,0.0443,0.044,0.0438,0.041,0.0412,0.0413,0,0,0,0,0,0,0.0729,0.0728,0.0697,0.0698,0.0691,0.0637,0.0643,0.0633,0.0618,0.0557,0.0545,0.0586,0.0497,0.0487,0.0466,0.0502,0.0439,0.0436,0.0409,0.0411,0.0412,0.0543,0,0,0,0,0,0,0.0731,0.073,0.0744,0.07,0.0692,0.0689,0.0644,0.0632,0.0616,0.0609,0.055,0.0539,0.0496,0.0471,0.0463,0.0497,0.0433,0.0408,0.041,0.0412,0.0538,0.0549,0.0559,0,0,0,0,0,0.0732,0.0765,0.0746,0.0744,0.0713,0.069,0.0682,0.0638,0.0617,0.0618,0.0578,0.054,0.0478,0.047,0.046,0.0494,0.0407,0.0409,0.0412,0.0533,0.0547,0.0559,0,0,0,0,0,0,0.0792,0.0759,0.0737,0.0762,0.0729,0.0677,0.0682,0.0649,0.0618,0.0615,0.0553,0.054,0.0537,0.0494,0.0487,0.0489,0.0437,0.0438,0.0532,0.0545,0.0556,0.0574,0.0431,0,0,0,0,0,0.0811,0.0819,0.0778,0.0795,0.0787,0.0735,0.0723,0.0692,0.0656,0.0641,0.0601,0.0562,0.0541,0.0525,0.0496,0.0498,0.0462,0.0512,0.0522,0.0532,0.054,0.0529,0.054,0.042,0.042,0.042,0,0,0.0837,0.0822,0.0826,0.0807,0.0781,0.0782,0.0725,0.0716,0.0717,0.0637,0.0637,0.06,0.0549,0.0552,0.0547,0.052,0.0546,0.0535,0.0544,0.0546,0.0533,0.0545,0.0555,0.0422,0.0422,0.0421,0,0,0.089,0.0884,0.0901,0.0884,0.0853,0.0827,0.0829,0.0785,0.0767,0.0755,0.0709,0.0696,0.0648,0.0631,0.0612,0.0664,0.0605,0.0651,0.072,0.0711,0.0721,0.073,0.0698,0.0703,0.0655,0.0655,0.0655,0,0.0917,0.0939,0.0903,0.0914,0.0912,0.0854,0.0872,0.0852,0.0807,0.081,0.0769,0.0733,0.069,0.0708,0.072,0.0693,0.0663,0.068,0.0728,0.0735,0.0742,0.0707,0.071,0.0662,0.0661,0.066,0.066,0,0.0972,0.099,0.1005,0.1,0.0995,0.1003,0.0971,0.097,0.0941,0.0918,0.0922,0.0865,0.084,0.0832,0.0786,0.0821,0.0777,0.0747,0.0702,0.0762,0.0721,0.0722,0.0671,0.0669,0.0667,0.0665,0,0,0.1017,0.1038,0.1039,0.1054,0.1041,0.1042,0.1064,0.1066,0.109,0.1048,0.1077,0.1038,0.1003,0.0979,0.0931,0.0922,0.0938,0.0856,0.0853,0.0836,0.0901,0.0836,0.083,0.0917,0.0918,0.0919,0.0853,0,0.1062,0.1112,0.1106,0.1152,0.1177,0.115,0.1177,0.1175,0.1162,0.1179,0.1137,0.1141,0.106,0.1054,0.1034,0.0976,0.0947,0.0957,0.0834,0.083,0.0776,0.0833,0.0789,0.0725,0.0854,0.0854,0.0854,0,0.1107,0.1138,0.1195,0.1235,0.1243,0.1261,0.1298,0.1313,0.1329,0.132,0.1316,0.1275,0.1269,0.1181,0.1105,0.1114,0.101,0.095,0.0945,0.0841,0.0769,0.0683,0.0721,0.0496,0.0855,0.0855,0.0855,0,0.115,0.1197,0.1248,0.1259,0.1296,0.1319,0.1338,0.136,0.139,0.1417,0.1443,0.141,0.1407,0.1299,0.1165,0.1134,0.1073,0.1012,0.0849,0.0842,0.0758,0.0742,0.0574,0.0937,0.0937,0.0937,0.0937,0,0.1198,0.1236,0.1271,0.1299,0.136,0.137,0.1435,0.145,0.1494,0.1557,0.1516,0.156,0.1437,0.138,0.1224,0.1058,0.1112,0.0872,0.0832,0.08,0.0789,0.0549,0.0446,0.0934,0.0935,0.0935,0.0936,0,0.1225,0.1255,0.1312,0.1363,0.1382,0.1422,0.1486,0.1536,0.1576,0.1658,0.1676,0.1687,0.1632,0.1484,0.1333,0.1143,0.0855,0.0897,0.086,0.0816,0.0429,0.0336,0.0153,0.0063,0.0702,0.07,0.0699,0,0.1239,0.1276,0.1347,0.1384,0.1405,0.1466,0.1515,0.1566,0.1628,0.174,0.179,0.1787,0.1807,0.157,0.1271,0.0998,0.0805,0.0724,0.0648,0.0411,0.0277,0.0226,0.0162,0.0582,0.058,0.0578,0.0576,0,0.1257,0.1283,0.1331,0.1413,0.1469,0.1542,0.1618,0.1683,0.1769,0.1864,0.1992,0.2035,0.1828,0.1581,0.1199,0.0975,0.0562,0.0671,0.0447,0.0189,0.0105,-0.0001,0.0604,0.0559,0.0561,0.0562,0.0563,0.0564,0.1256,0.129,0.1359,0.1435,0.151,0.1613,0.1686,0.1797,0.1931,0.2118,0.2141,0.2256,0.1831,0.1335,0.1021,0.0361,0.042,0.0136,0.0049,0.0024,-0.0082,0.0475,0.0371,0.0372,0.0372,0.0373,0.0373,0,0.1241,0.1298,0.1376,0.1477,0.1567,0.1608,0.1752,0.1858,0.2038,0.2245,0.2384,0.2211,0.1678,0.1131,0.0265,-0.0174,-0.0311,-0.0421,-0.0515,-0.0546,-0.0046,-0.0073,-0.0302,-0.0302,-0.0302,-0.0302,-0.0301,-0.0301,0.1236,0.1303,0.1356,0.1501,0.158,0.1711,0.1801,0.1987,0.216,0.2417,0.2501,0.2528,0.1996,0.05,-0.0499,-0.0715,-0.0996,-0.1069,-0.1175,-0.087,-0.0825,-0.0782,-0.0835,-0.1219,-0.122,-0.1636,-0.1641,-0.1644]}],[{"header":{"parameterUnit":"m.s-1","parameterCategory":2,"la1":30.2991,"la2":30.254,"lo1":-89.0895,"lo2":-89.0444,"dy":0.0017,"dx":0.0017,"nx":28,"ny":28,"refTime":"2025-07-27T03:00:00:Z","depth":"2","parameterNumber":2,"parameterNumberName":"U-component_of_CURRENTS"},"data":[0,0,0,0,0,0,0,0,0,0,0,0,0,0,0,0,0,0,0,0,0,0,0,0,0,0,0,0,0,0,0,0,0,0,0,0,0,0,0,0,0,0,0,0,0,0,0,0,0,0,0,0,0,0,0,0,0,0,0.246,0.2461,0,0.2546,0.2547,0.2548,0.2617,0.2618,0.2619,0.262,0.2765,0.2767,0.277,0,0,0,0,0,0,0,0,0,0,0,0,0,0.2337,0.2338,0.2459,0.2461,0.2462,0.2546,0.2547,0.2548,0.2617,0.2618,0.2619,0.262,0.2764,0.2767,0.2771,0,0,0,0,0,0,0,0,0,0,0,0,0,0.2401,0.2339,0.2459,0.2508,0.2514,0.2546,0.2547,0.2548,0.2616,0.2618,0.2619,0.262,0.2762,0.2767,0.2771,0.2772,0,0,0.2785,0.2787,0,0,0,0,0,0,0,0,0.2397,0.2405,0.25,0.2505,0.2511,0.2574,0.2557,0.2627,0.2616,0.2575,0.262,0.2621,0.2707,0.2716,0.2725,0.2778,0.2785,0.2785,0.2788,0.279,0.2791,0,0,0,0,0,0,0,0.2393,0.2402,0.2491,0.2501,0.2508,0.2521,0.2531,0.257,0.2631,0.2578,0.2584,0.2598,0.271,0.272,0.2729,0.2787,0.2785,0.2789,0.2792,0.2794,0.2978,0.298,0,0,0,0,0,0,0.2387,0.2398,0.2489,0.2494,0.2459,0.2522,0.2534,0.2551,0.263,0.2643,0.2596,0.26,0.2712,0.2724,0.2735,0.2829,0.279,0.2794,0.2797,0.2975,0.2978,0.298,0,0,0,0,0,0,0.2384,0.2394,0.2485,0.245,0.2462,0.2523,0.2541,0.2552,0.2593,0.2643,0.2658,0.2631,0.2714,0.2728,0.2804,0.2832,0.2796,0.28,0.2973,0.2976,0.2979,0.2961,0,0,0,0,0,0,0.238,0.2392,0.2401,0.2449,0.2464,0.2518,0.2541,0.2553,0.2599,0.2606,0.2677,0.269,0.2716,0.2797,0.2808,0.2837,0.2804,0.297,0.2974,0.2978,0.2959,0.2963,0.2967,0,0,0,0,0,0.2375,0.2385,0.2401,0.2412,0.2475,0.2519,0.2527,0.2573,0.2599,0.2616,0.2677,0.269,0.2832,0.2802,0.2815,0.2846,0.2968,0.2973,0.2978,0.2957,0.2962,0.2967,0,0,0,0,0,0,0.2347,0.2395,0.2413,0.244,0.2482,0.2532,0.2551,0.2586,0.2644,0.2663,0.271,0.2728,0.2819,0.2834,0.2801,0.2916,0.2905,0.2913,0.2885,0.289,0.2894,0.2862,0.2808,0,0,0,0,0,0.234,0.2358,0.2409,0.2433,0.2453,0.2506,0.2531,0.2568,0.2624,0.2652,0.2704,0.277,0.2842,0.2867,0.2934,0.2975,0.2983,0.3009,0.3013,0.3016,0.3002,0.3044,0.3049,0.2996,0.2996,0.2996,0,0,0.2338,0.2366,0.2378,0.2427,0.2462,0.2495,0.2525,0.2574,0.2612,0.2658,0.2731,0.28,0.2867,0.2934,0.2973,0.2947,0.3038,0.3022,0.3024,0.3008,0.3049,0.3054,0.3058,0.3,0.2999,0.2999,0,0,0.2339,0.2367,0.2381,0.2413,0.2469,0.2501,0.2521,0.2588,0.2627,0.2697,0.276,0.2834,0.2924,0.297,0.3007,0.307,0.308,0.3107,0.3071,0.3113,0.3116,0.3119,0.3134,0.3138,0.3081,0.3081,0.3081,0,0.2334,0.2362,0.2393,0.2419,0.245,0.2507,0.2539,0.2581,0.2667,0.2703,0.2724,0.2886,0.2937,0.3021,0.3041,0.3075,0.3093,0.304,0.3113,0.3116,0.312,0.3134,0.3139,0.3081,0.3081,0.3081,0.3081,0,0.2348,0.2373,0.2387,0.2434,0.2469,0.2508,0.2569,0.2617,0.2673,0.2718,0.2829,0.29,0.299,0.3022,0.3044,0.3108,0.3112,0.3131,0.3086,0.3123,0.3137,0.3143,0.308,0.308,0.308,0.308,0,0,0.2321,0.2384,0.2386,0.2409,0.2484,0.2512,0.2577,0.2644,0.2695,0.277,0.284,0.2942,0.2986,0.303,0.3082,0.309,0.3125,0.3104,0.3107,0.3093,0.3201,0.3155,0.3156,0.3157,0.3158,0.3159,0.3198,0,0.2323,0.2357,0.2398,0.2442,0.2467,0.2536,0.2589,0.2659,0.2731,0.2809,0.288,0.298,0.299,0.3048,0.3061,0.3165,0.3141,0.3112,0.319,0.3191,0.3125,0.3162,0.2938,0.295,0.3203,0.3204,0.3205,0,0.2314,0.234,0.2377,0.2445,0.2465,0.2506,0.26,0.2659,0.277,0.2832,0.292,0.2996,0.3087,0.3065,0.3178,0.3167,0.3157,0.3181,0.3184,0.3146,0.3156,0.296,0.2951,0.3214,0.3214,0.3213,0.3212,0,0.226,0.2321,0.2347,0.2371,0.2458,0.2499,0.2559,0.2667,0.2726,0.286,0.2929,0.3041,0.3134,0.3166,0.3235,0.3219,0.332,0.3315,0.3235,0.3232,0.3056,0.3036,0.3299,0.3299,0.3299,0.3298,0.3298,0,0.2235,0.2251,0.2324,0.2338,0.2379,0.2466,0.2534,0.2616,0.2741,0.2817,0.2942,0.3031,0.3161,0.3244,0.3256,0.3293,0.3346,0.3228,0.3242,0.3046,0.3025,0.3268,0.3264,0.33,0.33,0.3299,0.3299,0,0.2164,0.2214,0.2241,0.2326,0.2353,0.2386,0.2505,0.2558,0.2699,0.2811,0.2863,0.3057,0.3182,0.3261,0.3346,0.3335,0.3362,0.3316,0.307,0.3054,0.3228,0.3224,0.326,0.3258,0.3257,0.3256,0.3256,0,0.2127,0.2131,0.2202,0.2219,0.2259,0.2322,0.2369,0.2514,0.2591,0.2817,0.2874,0.3038,0.3115,0.3255,0.3273,0.3281,0.3306,0.3056,0.2968,0.3215,0.3226,0.3223,0.322,0.2726,0.2721,0.2717,0.2714,0,0.2042,0.2069,0.2089,0.2131,0.2176,0.2222,0.232,0.2369,0.2554,0.2642,0.2807,0.2887,0.3046,0.301,0.3041,0.3007,0.3062,0.2973,0.3312,0.278,0.2718,0.2728,0.2741,0.2678,0.2681,0.2684,0.2686,0.2687,0.1961,0.1958,0.1993,0.2026,0.2075,0.2126,0.2138,0.2226,0.23,0.2422,0.2614,0.2673,0.2772,0.273,0.2673,0.2667,0.2845,0.2732,0.2742,0.2757,0.2697,0.2638,0.2569,0.2572,0.2575,0.2577,0.2579,0,0.1851,0.1873,0.189,0.1926,0.1934,0.2018,0.2097,0.2052,0.2058,0.223,0.2306,0.2193,0.2205,0.2311,0.2257,0.228,0.2226,0.2187,0.2099,0.2138,0.2173,0.2079,0.179,0.1787,0.1784,0.1782,0,0,0.1795,0.1774,0.1793,0.1774,0.1811,0.1799,0.1825,0.1728,0.1793,0.1772,0.1848,0.2074,0.2249,0.1978,0.1959,0.1874,0.1977,0.1801,0.2441,0.2377,0.2407,0.2506,0.2411,0,0,0,0,0]},{"header":{"parameterUnit":"m.s-1","parameterCategory":2,"la1":30.2991,"la2":30.254,"lo1":-89.0895,"lo2":-89.0444,"dy":0.0017,"dx":0.0017,"nx":28,"ny":28,"refTime":"2025-07-27T03:00:00:Z","depth":"2","parameterNumber":3,"parameterNumberName":"V-component_of_CURRENTS"},"data":[0,0,0,0,0,0,0,0,0,0,0,0,0,0,0,0,0,0,0,0,0,0,0,0,0,0,0,0,0,0,0,0,0,0,0,0,0,0,0,0,0,0,0,0,0,0,0,0,0,0,0,0,0,0,0,0,0,0,-0.0673,-0.0674,0,-0.0752,-0.0753,-0.0754,-0.0804,-0.0804,-0.0804,-0.0804,-0.0652,-0.0648,-0.0643,0,0,0,0,0,0,0,0,0,0,0,0,0,-0.0565,-0.0567,-0.0673,-0.0674,-0.0675,-0.0752,-0.0753,-0.0754,-0.0803,-0.0804,-0.0804,-0.0805,-0.0653,-0.0648,-0.0643,0,0,0,0,0,0,0,0,0,0,0,0,0,-0.0625,-0.0567,-0.0673,-0.0709,-0.0713,-0.0752,-0.0753,-0.0755,-0.0803,-0.0804,-0.0804,-0.0805,-0.0655,-0.0649,-0.0642,-0.0593,0,0,-0.0622,-0.0619,0,0,0,0,0,0,0,0,-0.0621,-0.0628,-0.0703,-0.0707,-0.0711,-0.0769,-0.066,-0.0689,-0.0803,-0.0769,-0.0804,-0.0805,-0.0669,-0.0662,-0.0678,-0.0586,-0.058,-0.0622,-0.0618,-0.0615,-0.0613,0,0,0,0,0,0,0,-0.0617,-0.0625,-0.0704,-0.0704,-0.0709,-0.0722,-0.0731,-0.0667,-0.0711,-0.0772,-0.0776,-0.0785,-0.067,-0.0685,-0.0674,-0.0577,-0.0622,-0.0616,-0.0612,-0.061,-0.0468,-0.0468,0,0,0,0,0,0,-0.0608,-0.0622,-0.0702,-0.0706,-0.0667,-0.0723,-0.0733,-0.075,-0.0717,-0.0714,-0.0784,-0.0787,-0.0696,-0.0682,-0.0669,-0.0592,-0.0615,-0.0609,-0.0605,-0.0468,-0.0468,-0.0469,0,0,0,0,0,0,-0.0605,-0.0614,-0.0698,-0.0665,-0.0677,-0.0725,-0.0743,-0.0751,-0.0756,-0.0729,-0.0722,-0.0779,-0.0696,-0.0678,-0.0636,-0.0587,-0.0606,-0.06,-0.0468,-0.0468,-0.0468,-0.0447,0,0,0,0,0,0,-0.0602,-0.0613,-0.061,-0.0665,-0.0679,-0.0707,-0.0743,-0.0752,-0.0762,-0.0765,-0.0721,-0.071,-0.0695,-0.0647,-0.063,-0.0578,-0.0595,-0.0468,-0.0468,-0.0468,-0.0448,-0.0447,-0.0446,0,0,0,0,0,-0.0598,-0.0586,-0.0609,-0.0618,-0.0677,-0.0706,-0.0713,-0.0749,-0.076,-0.0755,-0.0754,-0.0711,-0.0636,-0.0642,-0.0622,-0.0567,-0.0468,-0.0468,-0.0468,-0.0448,-0.0447,-0.0446,0,0,0,0,0,0,-0.0528,-0.0592,-0.0618,-0.0624,-0.0659,-0.0714,-0.0706,-0.0735,-0.0735,-0.0723,-0.071,-0.0698,-0.0642,-0.0618,-0.0625,-0.0535,-0.0543,-0.0539,-0.0534,-0.0533,-0.0532,-0.0546,-0.059,0,0,0,0,0,-0.0515,-0.0529,-0.0587,-0.059,-0.06,-0.0651,-0.0662,-0.0686,-0.0701,-0.0703,-0.0687,-0.0661,-0.0629,-0.0595,-0.0564,-0.0502,-0.0513,-0.0458,-0.0457,-0.0456,-0.0459,-0.0477,-0.0478,-0.047,-0.047,-0.047,0,0,-0.0489,-0.0525,-0.0532,-0.0577,-0.0602,-0.0605,-0.0657,-0.0661,-0.0664,-0.0676,-0.0655,-0.0646,-0.0617,-0.0571,-0.054,-0.0539,-0.0463,-0.0457,-0.0456,-0.0459,-0.0477,-0.0478,-0.0479,-0.047,-0.047,-0.047,0,0,-0.0442,-0.0473,-0.0468,-0.0488,-0.0521,-0.0552,-0.0549,-0.0594,-0.061,-0.0603,-0.0615,-0.06,-0.0543,-0.0534,-0.0515,-0.0484,-0.0463,-0.0455,-0.0443,-0.046,-0.0461,-0.0461,-0.0469,-0.0471,-0.0448,-0.0448,-0.0448,0,-0.0405,-0.0417,-0.0466,-0.0461,-0.0465,-0.0522,-0.0506,-0.0531,-0.0561,-0.056,-0.0584,-0.0559,-0.0529,-0.0487,-0.0495,-0.0475,-0.0489,-0.0444,-0.0458,-0.0459,-0.046,-0.0468,-0.0471,-0.0447,-0.0447,-0.0447,-0.0447,0,-0.0363,-0.0364,-0.0353,-0.0375,-0.0382,-0.0373,-0.0416,-0.0418,-0.0445,-0.0478,-0.0465,-0.0483,-0.0461,-0.0454,-0.0463,-0.0443,-0.0452,-0.0459,-0.0459,-0.046,-0.0468,-0.0471,-0.0445,-0.0446,-0.0446,-0.0446,0,0,-0.0302,-0.0322,-0.0315,-0.0304,-0.0333,-0.0328,-0.0322,-0.0336,-0.0315,-0.0372,-0.0357,-0.0367,-0.0393,-0.038,-0.0391,-0.0426,-0.0446,-0.0449,-0.045,-0.0453,-0.0483,-0.0472,-0.0473,-0.0461,-0.0462,-0.0462,-0.0482,0,-0.0253,-0.0223,-0.0248,-0.0204,-0.019,-0.0222,-0.0209,-0.0222,-0.0246,-0.0243,-0.0299,-0.0283,-0.0357,-0.0337,-0.0388,-0.0413,-0.0454,-0.044,-0.0486,-0.0487,-0.0474,-0.0476,-0.0457,-0.0473,-0.0485,-0.0485,-0.0486,0,-0.0205,-0.0193,-0.0146,-0.012,-0.0111,-0.009,-0.006,-0.0055,-0.0075,-0.0093,-0.0125,-0.0162,-0.0198,-0.0272,-0.0362,-0.035,-0.042,-0.0477,-0.0479,-0.0479,-0.048,-0.0477,-0.0477,-0.049,-0.049,-0.049,-0.0489,0,-0.0146,-0.0115,-0.0071,-0.0064,-0.0047,-0.0016,-0.0003,-0.0005,0.0025,0.0007,0.003,-0.0047,-0.0044,-0.0173,-0.0296,-0.0319,-0.0414,-0.0441,-0.051,-0.0509,-0.0506,-0.0504,-0.0531,-0.0531,-0.0531,-0.0531,-0.0531,0,-0.0094,-0.0052,-0.0034,-0.0009,0.0067,0.0057,0.0131,0.0132,0.0157,0.0216,0.0119,0.0155,-0.0024,-0.0098,-0.0251,-0.0377,-0.0369,-0.051,-0.0516,-0.0497,-0.0495,-0.0523,-0.0522,-0.0531,-0.0531,-0.0531,-0.0531,0,-0.0035,-0.0032,0.0027,0.0068,0.0093,0.015,0.0221,0.0278,0.0284,0.0363,0.0369,0.0329,0.0235,0.0035,-0.0135,-0.027,-0.042,-0.0476,-0.0441,-0.0443,-0.0518,-0.0516,-0.0539,-0.0539,-0.0539,-0.0539,-0.0538,0,-0.0005,0.0028,0.0095,0.0143,0.0168,0.0244,0.0305,0.0336,0.0412,0.048,0.0545,0.0484,0.0457,0.0203,-0.0068,-0.0329,-0.0388,-0.0458,-0.0508,-0.0517,-0.052,-0.0518,-0.0516,-0.0494,-0.0494,-0.0494,-0.0493,0,0.006,0.0083,0.0133,0.0228,0.0303,0.0396,0.0494,0.0582,0.0643,0.072,0.0836,0.0821,0.0565,0.0328,-0.0041,-0.0224,-0.0418,-0.0456,-0.0467,-0.0492,-0.0476,-0.0478,-0.0478,-0.049,-0.049,-0.0491,-0.0491,-0.0491,0.0116,0.0165,0.023,0.0328,0.0422,0.0563,0.0675,0.079,0.0943,0.108,0.1041,0.1027,0.0703,0.0257,-0.0054,-0.037,-0.0382,-0.0491,-0.0492,-0.0494,-0.0481,-0.0466,-0.0475,-0.0476,-0.0476,-0.0476,-0.0476,0,0.0183,0.0237,0.0329,0.0456,0.0586,0.0617,0.082,0.0938,0.1148,0.1228,0.1288,0.1002,0.0701,0.0344,-0.012,-0.0408,-0.0451,-0.0486,-0.0484,-0.0486,-0.0488,-0.0476,-0.0469,-0.0469,-0.0469,-0.047,0,0,0.0221,0.0314,0.036,0.0576,0.0684,0.0894,0.1029,0.1192,0.1308,0.1402,0.1398,0.1259,0.0824,0.0493,0.0071,-0.0176,-0.0253,-0.0227,-0.0208,-0.0159,-0.0156,-0.0474,-0.0455,0,0,0,0,0]}],[{"header":{"parameterUnit":"m.s-1","parameterCategory":2,"la1":30.2991,"la2":30.254,"lo1":-89.0895,"lo2":-89.0444,"dy":0.0017,"dx":0.0017,"nx":28,"ny":28,"refTime":"2025-07-27T03:00:00:Z","depth":"4","parameterNumber":2,"parameterNumberName":"U-component_of_CURRENTS"},"data":[0,0,0,0,0,0,0,0,0,0,0,0,0,0,0,0,0,0,0,0,0,0,0,0,0,0,0,0,0,0,0,0,0,0,0,0,0,0,0,0,0,0,0,0,0,0,0,0,0,0,0,0,0,0,0,0,0,0,0.096,0.0961,0,0.1025,0.1025,0.1026,0.1061,0.1062,0.1062,0.1063,0.1107,0.1107,0.1108,0,0,0,0,0,0,0,0,0,0,0,0,0,0.0879,0.088,0.0959,0.0961,0.0962,0.1025,0.1025,0.1026,0.1061,0.1062,0.1062,0.1063,0.1106,0.1107,0.1108,0,0,0,0,0,0,0,0,0,0,0,0,0,0.0922,0.088,0.0959,0.099,0.0994,0.1025,0.1025,0.1026,0.1061,0.1062,0.1063,0.1063,0.1106,0.1107,0.1108,0.11,0,0,0.1112,0.1112,0,0,0,0,0,0,0,0,0.0919,0.0924,0.0985,0.0988,0.0993,0.104,0.1013,0.1051,0.1061,0.1031,0.1063,0.1064,0.1085,0.1088,0.1092,0.1102,0.1104,0.1112,0.1112,0.1113,0.1113,0,0,0,0,0,0,0,0.0916,0.0922,0.0981,0.0986,0.0991,0.1006,0.1012,0.102,0.1049,0.1034,0.1038,0.1052,0.1086,0.1091,0.1093,0.1105,0.1112,0.1113,0.1113,0.1114,0.1176,0.1177,0,0,0,0,0,0,0.0916,0.0919,0.0979,0.0983,0.0962,0.1007,0.1014,0.102,0.105,0.1056,0.1051,0.1053,0.1089,0.1092,0.1095,0.1155,0.1113,0.1114,0.1114,0.1175,0.1177,0.1178,0,0,0,0,0,0,0.0913,0.092,0.0976,0.0956,0.0965,0.1008,0.1015,0.1021,0.1056,0.1064,0.1069,0.1084,0.109,0.1094,0.1129,0.1154,0.1114,0.1115,0.1174,0.1176,0.1177,0.123,0,0,0,0,0,0,0.091,0.0918,0.0928,0.0956,0.0967,0.1009,0.1015,0.1022,0.1064,0.1068,0.1093,0.1096,0.109,0.1128,0.113,0.1155,0.1116,0.1173,0.1175,0.1177,0.1227,0.1233,0.1239,0,0,0,0,0,0.0907,0.0914,0.0928,0.0936,0.0976,0.101,0.1017,0.1047,0.1066,0.1081,0.1104,0.1097,0.1141,0.113,0.1132,0.1158,0.1172,0.1174,0.1176,0.1225,0.1232,0.1239,0,0,0,0,0,0,0.0883,0.092,0.0935,0.0953,0.0988,0.1018,0.104,0.1064,0.1094,0.1107,0.1112,0.1117,0.1154,0.115,0.1136,0.1181,0.1154,0.1157,0.119,0.1197,0.1203,0.121,0.1117,0,0,0,0,0,0.0883,0.0901,0.0938,0.0957,0.0976,0.1014,0.1037,0.1061,0.1091,0.1107,0.1126,0.1144,0.116,0.1176,0.1183,0.1212,0.1218,0.1229,0.1235,0.124,0.1247,0.1281,0.1291,0.1185,0.1185,0.1185,0,0,0.0882,0.0904,0.0916,0.0954,0.0983,0.1013,0.1029,0.1073,0.11,0.1105,0.115,0.1166,0.1172,0.1202,0.1218,0.1206,0.1274,0.1243,0.1247,0.1251,0.1284,0.1295,0.1304,0.1187,0.1187,0.1186,0,0,0.0883,0.0908,0.0924,0.0954,0.1006,0.103,0.1051,0.1098,0.1123,0.1164,0.1177,0.1213,0.1235,0.1249,0.1256,0.1299,0.1301,0.1305,0.1345,0.1378,0.1387,0.1396,0.1422,0.1432,0.1311,0.1311,0.1311,0,0.0885,0.0907,0.0936,0.0961,0.0993,0.1042,0.1073,0.1101,0.1155,0.1183,0.1184,0.1248,0.1253,0.13,0.1317,0.1313,0.1334,0.1319,0.1387,0.1395,0.1402,0.1427,0.1438,0.1314,0.1314,0.1313,0.1313,0,0.0893,0.0924,0.0939,0.0986,0.1019,0.1058,0.1103,0.1145,0.1184,0.1215,0.1277,0.1294,0.1337,0.1344,0.1344,0.1406,0.1405,0.1389,0.137,0.1416,0.1439,0.1449,0.1318,0.1317,0.1316,0.1316,0,0,0.0869,0.0934,0.0943,0.0972,0.1041,0.1068,0.1122,0.1183,0.1231,0.1277,0.1337,0.1371,0.1402,0.1413,0.1429,0.146,0.1528,0.1457,0.1457,0.1485,0.1612,0.1541,0.1544,0.1534,0.1536,0.1537,0.1609,0,0.0875,0.0919,0.0956,0.1011,0.1041,0.1104,0.1151,0.1212,0.1266,0.1333,0.1372,0.1432,0.1422,0.1464,0.1493,0.1524,0.1557,0.151,0.1561,0.1562,0.1496,0.1554,0.1543,0.1616,0.1618,0.162,0.1621,0,0.0868,0.0903,0.0952,0.1032,0.1053,0.1098,0.1193,0.1245,0.1341,0.1386,0.1457,0.1497,0.1569,0.1546,0.1622,0.16,0.1615,0.1626,0.1629,0.155,0.151,0.1559,0.1639,0.1637,0.1636,0.1635,0.1634,0,0.0823,0.0899,0.094,0.0966,0.106,0.1106,0.1171,0.1267,0.1323,0.1439,0.1496,0.1574,0.1633,0.1665,0.17,0.1676,0.1773,0.1733,0.168,0.1675,0.1693,0.1683,0.1782,0.1782,0.1782,0.1782,0.1782,0,0.0801,0.0836,0.0928,0.095,0.1013,0.1094,0.1178,0.1251,0.1367,0.1442,0.153,0.1596,0.167,0.1733,0.1738,0.1749,0.1806,0.1702,0.1695,0.1713,0.1705,0.17,0.1689,0.1785,0.1784,0.1784,0.1783,0,0.0738,0.0798,0.0845,0.0951,0.0991,0.1037,0.1176,0.1232,0.1359,0.1462,0.151,0.1639,0.1724,0.178,0.1845,0.1796,0.1812,0.1799,0.1835,0.1826,0.1679,0.1671,0.1739,0.1737,0.1735,0.1734,0.1733,0,0.0707,0.0727,0.083,0.086,0.0913,0.1003,0.1065,0.1207,0.1273,0.1472,0.151,0.1653,0.1723,0.1762,0.1818,0.1841,0.1815,0.181,0.1722,0.1692,0.1679,0.1672,0.1666,0.1731,0.173,0.173,0.173,0,0.065,0.0692,0.0733,0.0794,0.0856,0.0926,0.1035,0.1078,0.1251,0.1372,0.1494,0.157,0.1666,0.1719,0.1764,0.1766,0.1805,0.1793,0.1795,0.1712,0.1683,0.167,0.1665,0.1724,0.1725,0.1726,0.1726,0,0.0606,0.0615,0.0674,0.0722,0.0789,0.0842,0.0909,0.1016,0.1109,0.1336,0.1372,0.1528,0.1654,0.1682,0.1717,0.173,0.1689,0.1621,0.1631,0.1637,0.1571,0.1517,0.1516,0,0,0,0,0,0.0563,0.0571,0.0604,0.0652,0.0714,0.0761,0.0886,0.0961,0.1129,0.1184,0.1286,0.1379,0.1478,0.1551,0.1541,0.1647,0.1673,0.1627,0.1592,0.1695,0.1701,0.1632,0,0,0,0,0,0,0.0529,0.0557,0.0576,0.059,0.0611,0.0679,0.0753,0.0865,0.0914,0.1091,0.1148,0.1292,0.1392,0.1464,0.151,0.1532,0.1484,0.1725,0.1722,0.1692,0.1697,0.1702,0.1633,0,0,0,0,0]},{"header":{"parameterUnit":"m.s-1","parameterCategory":2,"la1":30.2991,"la2":30.254,"lo1":-89.0895,"lo2":-89.0444,"dy":0.0017,"dx":0.0017,"nx":28,"ny":28,"refTime":"2025-07-27T03:00:00:Z","depth":"4","parameterNumber":3,"parameterNumberName":"V-component_of_CURRENTS"},"data":[0,0,0,0,0,0,0,0,0,0,0,0,0,0,0,0,0,0,0,0,0,0,0,0,0,0,0,0,0,0,0,0,0,0,0,0,0,0,0,0,0,0,0,0,0,0,0,0,0,0,0,0,0,0,0,0,0,0,-0.0021,-0.0022,0,-0.0086,-0.0087,-0.0088,-0.0128,-0.0128,-0.0128,-0.0129,-0.021,-0.0212,-0.0214,0,0,0,0,0,0,0,0,0,0,0,0,0,0.0017,0.0017,-0.0021,-0.0022,-0.0023,-0.0086,-0.0087,-0.0088,-0.0128,-0.0128,-0.0128,-0.0129,-0.0209,-0.0212,-0.0214,0,0,0,0,0,0,0,0,0,0,0,0,0,-0.0019,0.0017,-0.0021,-0.005,-0.0053,-0.0086,-0.0087,-0.0088,-0.0128,-0.0128,-0.0128,-0.0129,-0.0208,-0.0211,-0.0214,-0.0228,0,0,-0.0223,-0.0225,0,0,0,0,0,0,0,0,-0.0017,-0.002,-0.0045,-0.0048,-0.0052,-0.0099,-0.0104,-0.0136,-0.0128,-0.01,-0.0129,-0.0129,-0.0174,-0.018,-0.0192,-0.0232,-0.0235,-0.0224,-0.0226,-0.0227,-0.0228,0,0,0,0,0,0,0,-0.0014,-0.0018,-0.0047,-0.0046,-0.005,-0.0077,-0.0082,-0.011,-0.0135,-0.0102,-0.0105,-0.0112,-0.0176,-0.0189,-0.0194,-0.0236,-0.0224,-0.0226,-0.0228,-0.0229,-0.0292,-0.0292,0,0,0,0,0,0,-0.0002,-0.0015,-0.0045,-0.0049,-0.0034,-0.0078,-0.0083,-0.0084,-0.0135,-0.0143,-0.0112,-0.0114,-0.0183,-0.019,-0.0197,-0.0216,-0.0227,-0.023,-0.0231,-0.0292,-0.0292,-0.0292,0,0,0,0,0,0,-0.0001,-0.0004,-0.0043,-0.0034,-0.0041,-0.0078,-0.0078,-0.0085,-0.0102,-0.0142,-0.015,-0.0122,-0.0184,-0.0193,-0.0221,-0.0219,-0.0231,-0.0234,-0.0292,-0.0292,-0.0292,-0.0253,0,0,0,0,0,0,0.0,-0.0003,-0.0003,-0.0033,-0.0041,-0.0061,-0.0078,-0.0086,-0.0105,-0.0108,-0.0153,-0.0161,-0.0185,-0.0216,-0.0224,-0.0223,-0.0236,-0.0293,-0.0292,-0.0292,-0.0255,-0.0252,-0.0249,0,0,0,0,0,0.0002,0.0005,-0.0002,-0.0006,-0.0037,-0.0061,-0.0067,-0.0095,-0.0105,-0.0112,-0.014,-0.0159,-0.022,-0.0218,-0.0228,-0.0228,-0.0293,-0.0292,-0.0292,-0.0256,-0.0252,-0.0249,0,0,0,0,0,0,0.0016,-0.0,-0.0008,-0.0012,-0.0033,-0.0067,-0.0076,-0.0094,-0.0122,-0.0126,-0.0161,-0.0171,-0.0195,-0.0216,-0.0214,-0.0245,-0.0258,-0.026,-0.0228,-0.0225,-0.0222,-0.0209,-0.0239,0,0,0,0,0,0.0022,0.0022,-0.0001,-0.0006,-0.0013,-0.0044,-0.0058,-0.0076,-0.0103,-0.0116,-0.0145,-0.0174,-0.0201,-0.0215,-0.0243,-0.0261,-0.0293,-0.0266,-0.0263,-0.026,-0.0256,-0.0311,-0.0313,-0.0291,-0.0291,-0.0291,0,0,0.0023,0.0016,0.0014,-0.0003,-0.002,-0.0024,-0.0053,-0.0071,-0.0074,-0.012,-0.0134,-0.0169,-0.0204,-0.0224,-0.0236,-0.0241,-0.0282,-0.026,-0.0258,-0.0254,-0.0311,-0.0313,-0.0315,-0.0291,-0.0291,-0.0291,0,0,0.0033,0.0024,0.0031,0.0019,-0.0001,-0.0016,-0.0019,-0.005,-0.0063,-0.0081,-0.0114,-0.0149,-0.0183,-0.0212,-0.0229,-0.0228,-0.0268,-0.0234,-0.0209,-0.0263,-0.0265,-0.0268,-0.0306,-0.0312,-0.023,-0.023,-0.023,0,0.0036,0.0046,0.0026,0.0031,0.0028,-0.0007,-0.0,-0.0018,-0.0054,-0.0063,-0.0077,-0.0143,-0.0176,-0.0206,-0.0204,-0.0222,-0.0254,-0.0218,-0.026,-0.0263,-0.0266,-0.0305,-0.0312,-0.0228,-0.0228,-0.0228,-0.0229,0,0.0053,0.006,0.0063,0.0066,0.0057,0.0055,0.0035,0.0023,0.0005,-0.0016,-0.0052,-0.0104,-0.0142,-0.0159,-0.018,-0.0217,-0.0232,-0.0252,-0.0267,-0.0266,-0.0306,-0.0315,-0.0225,-0.0226,-0.0227,-0.0227,0,0,0.0063,0.0075,0.0076,0.0092,0.0078,0.0077,0.0075,0.0063,0.0062,0.0018,0.0005,-0.0049,-0.0087,-0.0109,-0.0152,-0.0197,-0.0248,-0.0228,-0.0231,-0.0263,-0.0359,-0.0324,-0.0331,-0.0279,-0.0281,-0.0282,-0.0375,0,0.0085,0.0114,0.0109,0.0136,0.0151,0.0129,0.0134,0.0116,0.0091,0.0068,0.0007,-0.0023,-0.0064,-0.0087,-0.014,-0.0225,-0.0269,-0.022,-0.0356,-0.036,-0.0329,-0.0339,-0.0286,-0.0382,-0.0384,-0.0385,-0.0386,0,0.0104,0.0126,0.016,0.0187,0.0191,0.0199,0.0201,0.0199,0.0157,0.0136,0.0084,0.0033,-0.0039,-0.0074,-0.0216,-0.0184,-0.0262,-0.0328,-0.0334,-0.032,-0.0341,-0.0386,-0.0402,-0.0401,-0.04,-0.0399,-0.0398,0,0.0131,0.0163,0.0198,0.0204,0.0223,0.0234,0.024,0.0216,0.0222,0.0172,0.0163,0.0064,0.0017,-0.01,-0.0228,-0.0229,-0.0384,-0.0405,-0.0448,-0.0447,-0.0468,-0.0464,-0.0503,-0.0503,-0.0503,-0.0503,-0.0503,0,0.016,0.019,0.0216,0.0235,0.028,0.0273,0.0304,0.0291,0.0273,0.0282,0.0199,0.0174,0.0007,-0.0097,-0.022,-0.0354,-0.0382,-0.0444,-0.0471,-0.0448,-0.0441,-0.0474,-0.0469,-0.0506,-0.0506,-0.0505,-0.0504,0,0.0185,0.0201,0.0248,0.0281,0.0295,0.0325,0.036,0.0378,0.0354,0.0359,0.0348,0.0245,0.0108,-0.0052,-0.0248,-0.0329,-0.0469,-0.0509,-0.0459,-0.0483,-0.05,-0.0492,-0.057,-0.0569,-0.0569,-0.0569,-0.0568,0,0.0204,0.0227,0.0283,0.0318,0.0337,0.0383,0.0415,0.0417,0.0437,0.0406,0.0411,0.0289,0.0205,-0.0037,-0.0217,-0.0444,-0.0471,-0.0534,-0.0527,-0.0489,-0.0508,-0.0501,-0.0493,-0.0568,-0.0568,-0.0568,-0.0568,0,0.0237,0.0252,0.029,0.0359,0.0408,0.0468,0.0511,0.0533,0.0535,0.0518,0.0469,0.0342,0.0191,-0.0017,-0.0189,-0.0354,-0.049,-0.0531,-0.0533,-0.0528,-0.0488,-0.0505,-0.0499,-0.0566,-0.0567,-0.0567,-0.0567,0,0.0259,0.029,0.0335,0.0399,0.0464,0.0528,0.0552,0.0576,0.0592,0.0558,0.0537,0.037,0.0263,0.003,-0.0133,-0.0287,-0.0329,-0.0366,-0.0377,-0.0381,-0.0296,-0.0216,-0.0233,0,0,0,0,0,0.0277,0.0312,0.0371,0.0442,0.0508,0.0548,0.0606,0.0622,0.0626,0.0608,0.0577,0.0439,0.0202,0.0086,-0.0063,-0.0141,-0.0365,-0.0319,-0.0415,-0.056,-0.0561,-0.0491,0,0,0,0,0,0,0.0289,0.0342,0.0372,0.0463,0.0517,0.0594,0.0635,0.0642,0.063,0.0608,0.0477,0.0418,0.0173,0.0284,-0.0063,-0.0112,-0.0187,-0.0437,-0.044,-0.0559,-0.0561,-0.0562,-0.0489,0,0,0,0,0]}]]